Location: Marengo
(51.4813°N, 109.7825°W)
Time: 00:51:23
(UTC+00:00)

BlueWalker 3 - Pass Details

Date: 09 December 2022
Orbit: 499 x 517 km, 53.2° (Epoch: 26 January)

Event Time Altitude Azimuth Distance (km) Brightness Sun altitude
Rises 01:12:59 0° 289° (WNW) 2,634 6.5 -17.9°
Reaches altitude 10° 01:15:14 10° 284° (WNW) 1,741 5.6 -18.2°
Maximum altitude 01:19:02 49° 210° (SSW) 665 2.7 -18.8°
Enters shadow 01:21:07 24° 145° (SE) 1,099 3.4 -19.1°
